Regional Weather Roundup
Issued by NWS Bismarck, ND

Home | Current Version | Previous Version | Text Only | Print | Product List | Glossary On
Versions: 1 2 3 4 5 6 7 8 9 10 11 12 13 14 15 16 17 18 19 20 21 22 23 24 25 26 27 28 29 30 31 32 33 34 35 36 37 38 39 40 41 42 43 44 45 46 47 48 49 50
000
ASUS43 KBIS 250810
RWRBIS

NWR BROADCAST TEXT
NATIONAL WEATHER SERVICE BISMARCK ND
300 AM CDT SUN JUN 25 2017

NOTE: "FAIR" INDICATES FEW OR NO CLOUDS BELOW 12,000 FEET WITH NO
SIGNIFICANT WEATHER AND/OR OBSTRUCTIONS TO VISIBILITY.


CITY           SKY/WX    TMP DP  RH WIND       PRES   REMARKS
WILLISTON      CLEAR     50  40  68 SW7       30.26S
MINOT          CLOUDY    50  40  68 SW9       30.25R
MINOT AFB      CLOUDY    46  42  86 CALM      30.24S
BISMARCK       CLEAR     43  39  86 SW5       30.28F
DICKINSON      CLEAR     39  32  76 S7        30.28F
GARRISON         N/A     45  37  73 W3        30.26S
HETTINGER ARPT CLEAR     35  28  75 CALM      30.33F
JAMESTOWN      CLEAR     46  43  89 NW7       30.23S
HAZEN          PTSUNNY   36  34  93 CALM      30.29S
LINTON           N/A    N/A N/A N/A CALM      30.30F
MANDAN         FAIR      41  36  81 W5        30.28F
STANLEY        CLOUDY    48  43  81 CALM      30.30R
TIOGA          CLOUDY    45  45 100 E6        30.28R
WATFORD CITY   FAIR      41  36  81 SW5       30.26S
$$

CITY           SKY/WX    TMP DP  RH WIND       PRES   REMARKS
GRAND FORKS    CLEAR     45  42  89 NW8       30.19R
GRAND FORKS AF CLEAR     46  41  84 NW7       30.20R
DEVILS LAKE    CLEAR     44  42  93 NW7       30.23S
FARGO          CLEAR     50  43  77 NW12      30.18S
GRAFTON        FAIR      46  43  87 NW8       30.21S
GWINNER        PTSUNNY   50  43  76 NW8       30.22S
LANGDON        FAIR      39  39 100 NW3       30.22S
ROLLA            N/A     41  41 100 W8        30.24S
$$

CITY           SKY/WX    TMP DP  RH WIND       PRES   REMARKS
ABERDEEN       PTCLDY    47  42  83 NW8       30.26R
MOBRIDGE       CLEAR     42  38  85 CALM      30.28S
BUFFALO          N/A     48  32  53 W5        30.29S
RAPID CITY     CLOUDY    49  34  56 W3        30.38S
GLASGOW        CLEAR     51  34  52 E6        30.26F
SIDNEY         CLEAR     44  37  76 S8        30.27F
WOLF POINT     CLEAR     45  32  60 W5        30.27S
GLENDIVE       CLEAR     50  33  52 SW6       30.30F
MILES CITY     CLEAR     53  30  41 SE8       30.30F
BAKER          CLEAR     47  31  53 S8        30.33F
$$

CITY           SKY/WX    TMP DP  RH WIND       PRES   REMARKS
BILLINGS       CLOUDY    60  38  43 N5        30.34
GREAT FALLS    CLOUDY    51  42  71 CALM      30.33S
REGINA         CLOUDY    48  45  87 NE2       30.26R
ESTEVAN        PTCLDY    50  46  87 S6        30.25S
$$





USA.gov is the U.S. government's official web portal to all federal, state and local government web resources and services.